Home   Weather   Coral Harbour   Past weeks
Flag for Canada

Past Weather in Coral Harbour, Nunavut, Canada — Yesterday and Last 2 Weeks

Now
54 °F

Passing clouds.


Feels Like: 51 °F
Forecast: 57 / 44 °F
Wind: 9 mph from South

Location: Coral Harbour

Current Time: Jun 25, 2019 at 7:15:46 pm

Latest Report: Jun 25, 2019 at 6:00 pm


Visibility: 15 mi

Pressure: 30.12 "Hg

Humidity: 51%

Dew Point: 36 °F

Location of Coral HarbourLocation

Past Weather in Coral Harbour — Graph

°F

Coral Harbour Temperature Yesterday

Maximum temperature yesterday: 55 °F (at 11:00 am)
Minimum temperature yesterday: 45 °F (at 12:00 am)
Average temperature yesterday: 52 °F

High & Low Weather Summary for the Past Weeks

 TemperatureHumidityPressure
High61 °F (Jun 23, 1:00 pm)100% (Jun 11, 12:00 am)30.23 "Hg (Jun 11, 12:00 am)
Low30 °F (Jun 11, 5:00 am)34% (Jun 23, 5:00 pm)29.68 "Hg (Jun 12, 2:00 pm)
Average43 °F80%30.00 "Hg
* Reported Jun 10 7:00 pm — Jun 25 6:00 pm, Coral Harbour. Weather by CustomWeather, © 2019

Note: Actual official high and low records may vary slightly from our data, if they occured in-between our weather recording intervals... More about our weather records

Advertising

Coral Harbour Weather History for the Previous 24 Hours

Scroll right to see more
 ConditionsComfort  
Time TempWeatherWind HumidityBarometerVisibility
6:00 pm
Tue, Jun 25
54 °FPassing clouds.9 mph51%30.12 "Hg15 mi
5:00 pm57 °FPassing clouds.7 mph55%30.11 "Hg15 mi
4:00 pm55 °FPassing clouds.5 mph51%30.11 "Hg15 mi
3:00 pm55 °FPassing clouds.5 mph51%30.11 "Hg15 mi
2:00 pm55 °FPassing clouds.6 mph47%30.11 "Hg15 mi
1:00 pm54 °FPassing clouds.6 mph51%30.09 "Hg15 mi
12:00 pm54 °FPassing clouds.6 mph51%30.10 "Hg15 mi
11:00 am52 °FPassing clouds.8 mph58%30.09 "Hg15 mi
10:00 am52 °FPassing clouds.7 mph58%30.09 "Hg15 mi
9:00 am50 °FPassing clouds.7 mph58%30.08 "Hg15 mi
8:00 am48 °FPassing clouds.6 mph66%30.08 "Hg15 mi
7:00 am45 °FPassing clouds.6 mph71%30.07 "Hg15 mi
6:00 am43 °FPassing clouds.5 mph81%30.06 "Hg15 mi
5:00 am39 °FPassing clouds.3 mph87%30.06 "Hg15 mi
4:00 am39 °FPassing clouds.5 mph87%30.04 "Hg15 mi
3:00 am37 °FPassing clouds.5 mph93%30.04 "Hg15 mi
2:00 am37 °FPassing clouds.7 mph93%30.03 "Hg15 mi
1:00 am37 °FPassing clouds.3 mph87%30.02 "Hg15 mi
12:00 am41 °FPartly sunny.3 mph81%30.01 "Hg15 mi
11:00 pm
Mon, Jun 24
46 °FBroken clouds.5 mph71%30.01 "Hg15 mi
10:00 pm48 °FPartly sunny.3 mph71%30.01 "Hg15 mi
9:00 pm48 °FPartly sunny.3 mph76%30.00 "Hg15 mi
8:00 pm50 °FPartly sunny.7 mph71%30.00 "Hg15 mi
Weather by CustomWeather, © 2019

See weather overview